Volver al catálogo

STARLINK-32877

ActivoComunicacionesVLEO
NORAD 62960·PAYLOAD·🇺🇸 United States

Lanzado Feb 11, 2025 desde Vandenberg Space Force Base

Loading…

Próximos Pases (próximas 24 horas)

TLE

ActualizadoSource: CelesTrak SupGP

Época: Sep 15, 2026, 02:14 UTC

1 62960C 25029N   26258.09354167 -.00020681  00000+0 -61103-3 0  2589
2 62960  53.1582  70.7316 0001140  79.9438 287.0603 15.34401102    17

Sigue STARLINK-32877 en tiempo real con AllMySat

Download on the App Store